This is the latest recevied weather packets stored in our database for station/object SV2ASS-2. If no packets are shown the sender has not sent any weather packets the latest 10 day(s).
| Time | Temp. | Humidity | Pressure | Rain* | Wind** | Luminosity | Snow |
|---|---|---|---|---|---|---|---|
| 1777531553 | 16.67° C | 59% | 1020.1 hPa | - | - | - | - |
| 1777530653 | 16.11° C | 60% | 1020.2 hPa | - | - | - | - |
| 1777529753 | 15.56° C | 61% | 1020.2 hPa | - | - | - | - |
| 1777528853 | 15.56° C | 62% | 1020.3 hPa | - | - | - | - |
| 1777527953 | 15° C | 60% | 1020.4 hPa | - | - | - | - |
| 1777527052 | 15° C | 66% | 1020.3 hPa | - | - | - | - |
| 1777526152 | 13.89° C | 71% | 1020.5 hPa | - | - | - | - |
| 1777525252 | 13.89° C | 70% | 1020.4 hPa | - | - | - | - |
| 1777524352 | 13.33° C | 69% | 1020.3 hPa | - | - | - | - |
| 1777523452 | 13.33° C | 68% | 1020.2 hPa | - | - | - | - |
| 1777522555 | 13.33° C | 69% | 1020.2 hPa | - | - | - | - |
| 1777521655 | 13.33° C | 69% | 1020.1 hPa | - | - | - | - |
| 1777520755 | 13.89° C | 68% | 1019.8 hPa | - | - | - | - |
| 1777519854 | 13.89° C | 69% | 1019.9 hPa | - | - | - | - |
| 1777518954 | 13.89° C | 69% | 1020.1 hPa | - | - | - | - |
| 1777518054 | 13.89° C | 69% | 1020.1 hPa | - | - | - | - |
| 1777517154 | 13.89° C | 68% | 1019.9 hPa | - | - | - | - |
| 1777516254 | 13.89° C | 68% | 1019.9 hPa | - | - | - | - |
| 1777515354 | 13.89° C | 69% | 1019.8 hPa | - | - | - | - |
| 1777514454 | 13.89° C | 70% | 1020 hPa | - | - | - | - |
| 1777513554 | 14.44° C | 68% | 1020.1 hPa | - | - | - | - |
| 1777512654 | 14.44° C | 67% | 1020.2 hPa | - | - | - | - |
| 1777511754 | 14.44° C | 69% | 1020.3 hPa | - | - | - | - |
| 1777510854 | 14.44° C | 69% | 1020.3 hPa | - | - | - | - |
| 1777509954 | 14.44° C | 68% | 1020.3 hPa | - | - | - | - |
* Rain since midnight (hover to see other rain measurements)
** Current wind speed in m/s (hover to see current wind gust speed)